Date String (YYYY-MM-DD hh:mm:ss) UTC,Instrument flags,absolute air pressure of the measurement (hPa),sample flow rate (lpm),inlet stack bypass flow (lpm),air temperature of the measurement (°C),ambient temperature measured by the external sensor (°C),aerosol sample conditioner tube jacket temperature (°C),OPC LED temperature (°C),internal box temperature (°C),relative humidity of the measurement (%),span deviation,mass concentration of particles derived from Lorenz-Mie calculation of OPC scattering (μg/m³),mass concentration of particles derived from Lorenz-Mie calculation of OPC scattering (μg/m³),mass concentration of particles derived from Lorenz-Mie calculation of OPC scattering (μg/m³)
DateTimeUTC,F1_M11,P_M11,Q1_M11,Q2_M11,T1_M11,T2_M11,T3_M11,T4_M11,T5_M11,U1_M11,ZSPAN_M11,X0_M11,X2_M11,X1_M11
2023-11-25 13:00:00,SystemResetWarning,0828.0,5.01,000.00,019.2,018.5,000.0,027.5,020.4,10.1,0000.0,0005.17,0003.83,0003.59
2023-11-25 13:01:00,SystemResetWarning,0828.1,4.99,000.00,019.2,018.4,000.0,027.5,020.4,10.2,0000.0,0005.13,0003.81,0003.58
2023-11-25 13:02:00,SystemResetWarning,0828.1,4.98,000.00,019.2,018.4,000.0,027.5,020.4,10.2,0000.0,0005.11,0003.81,0003.57
2023-11-25 13:03:00,SystemResetWarning,0828.1,5.01,000.00,019.2,018.3,000.0,027.5,020.3,10.2,0000.0,0005.12,0003.79,0003.55
2023-11-25 13:04:00,SystemResetWarning,0828.1,5.01,000.00,019.2,018.3,000.0,027.5,020.3,10.2,0000.0,0005.19,0003.80,0003.54
2023-11-25 13:05:00,SystemResetWarning,0828.1,5.00,000.00,019.1,018.2,000.0,027.5,020.3,10.2,0000.0,0005.27,0003.83,0003.55
2023-11-25 13:06:00,SystemResetWarning,0828.2,4.99,000.00,019.1,018.2,000.0,027.5,020.2,10.2,0000.0,0005.28,0003.83,0003.55
2023-11-25 13:07:00,SystemResetWarning,0828.2,4.99,000.00,019.1,018.2,000.0,027.5,020.2,10.2,0000.0,0005.30,0003.83,0003.56
2023-11-25 13:08:00,SystemResetWarning,0828.2,5.01,000.00,019.1,018.2,000.0,027.4,020.4,10.2,0000.0,0005.29,0003.83,0003.56
2023-11-25 13:09:00,SystemResetWarning,0828.2,5.01,000.00,019.2,018.6,000.0,027.5,020.9,10.2,0000.0,0005.44,0003.86,0003.56
2023-11-25 13:10:00,SystemResetWarning,0828.2,5.00,000.00,019.3,019.3,000.0,027.5,021.2,10.1,0000.0,0005.50,0003.87,0003.56
2023-11-25 13:11:00,SystemResetWarning,0828.2,4.99,000.00,019.4,019.4,000.0,027.5,021.0,10.1,0000.0,0005.79,0003.94,0003.57
2023-11-25 13:12:00,SystemResetWarning,0828.2,5.00,000.00,019.4,019.3,000.0,027.5,020.9,10.0,0000.0,0006.13,0003.98,0003.57
2023-11-25 13:13:00,SystemResetWarning,0828.2,5.02,000.00,019.4,019.2,000.0,027.5,020.8,10.0,0000.0,0006.36,0003.99,0003.58
2023-11-25 13:14:00,SystemResetWarning,0828.2,5.00,000.00,019.4,019.0,000.0,027.6,020.7,10.1,0000.0,0006.34,0003.99,0003.59
2023-11-25 13:15:00,SystemResetWarning,0828.2,4.99,000.00,019.3,018.9,000.0,027.6,020.6,10.1,0000.0,0006.22,0003.97,0003.59
2023-11-25 13:16:00,SystemResetWarning,0828.2,4.99,000.00,019.3,018.8,000.0,027.6,020.5,10.1,0000.0,0006.18,0003.96,0003.59
2023-11-25 13:17:00,SystemResetWarning,0828.2,5.01,000.00,019.3,018.7,000.0,027.6,020.5,10.1,0000.0,0006.16,0003.95,0003.59
2023-11-25 13:18:00,SystemResetWarning,0828.3,5.01,000.00,019.3,018.6,000.0,027.6,020.4,10.1,0000.0,0006.20,0003.96,0003.59
2023-11-25 13:19:00,SystemResetWarning,0828.3,5.00,000.00,019.3,018.6,000.0,027.6,020.4,10.1,0000.0,0006.11,0003.94,0003.59
2023-11-25 13:20:00,SystemResetWarning,0828.2,5.00,000.00,019.3,018.5,000.0,027.5,020.4,10.1,0000.0,0006.03,0003.93,0003.60
2023-11-25 13:21:00,SystemResetWarning,0828.2,5.00,000.00,019.2,018.5,000.0,027.5,020.4,10.1,0000.0,0006.10,0003.93,0003.60
2023-11-25 13:22:00,SystemResetWarning,0828.2,4.99,000.00,019.2,018.4,000.0,027.5,020.4,10.1,0000.0,0006.03,0003.91,0003.60
2023-11-25 13:23:00,SystemResetWarning,0828.3,5.00,000.00,019.2,018.4,000.0,027.5,020.3,10.1,0000.0,0005.91,0003.90,0003.60
2023-11-25 13:24:00,SystemResetWarning,0828.2,5.00,000.00,019.2,018.3,000.0,027.5,020.3,10.1,0000.0,0005.71,0003.90,0003.60
2023-11-25 13:25:00,SystemResetWarning,0828.3,5.01,000.00,019.2,018.3,000.0,027.5,020.3,10.1,0000.0,0005.84,0003.93,0003.60
2023-11-25 13:26:00,SystemResetWarning,0828.3,5.00,000.00,019.2,018.3,000.0,027.5,020.3,10.1,0000.0,0005.85,0003.94,0003.60
2023-11-25 13:27:00,SystemResetWarning,0828.2,5.00,000.00,019.1,018.2,000.0,027.5,020.3,10.1,0000.0,0005.81,0003.93,0003.60
2023-11-25 13:28:00,SystemResetWarning,0828.2,5.00,000.00,019.1,018.2,000.0,027.5,020.3,10.1,0000.0,0005.73,0003.92,0003.61
2023-11-25 13:29:00,SystemResetWarning,0828.2,5.00,000.00,019.1,018.2,000.0,027.5,020.3,10.2,0000.0,0005.56,0003.88,0003.60
2023-11-25 13:30:00,SystemResetWarning,0828.2,5.00,000.00,019.1,018.2,000.0,027.5,020.2,10.2,0000.0,0005.51,0003.87,0003.59
2023-11-25 13:31:00,SystemResetWarning,0828.3,5.00,000.00,019.1,018.2,000.0,027.5,020.2,10.2,0000.0,0005.48,0003.86,0003.59
2023-11-25 13:32:00,SystemResetWarning,0828.3,5.00,000.00,019.1,018.2,000.0,027.4,020.2,10.2,0000.0,0005.43,0003.85,0003.58
2023-11-25 13:33:00,SystemResetWarning,0828.3,5.00,000.00,019.1,018.1,000.0,027.4,020.2,10.2,0000.0,0005.29,0003.83,0003.59
2023-11-25 13:34:00,SystemResetWarning,0828.3,4.99,000.00,019.0,018.1,000.0,027.4,020.1,10.2,0000.0,0005.24,0003.83,0003.59
2023-11-25 13:35:00,SystemResetWarning,0828.3,4.99,000.00,019.1,018.2,000.0,027.4,020.4,10.2,0000.0,0005.17,0003.83,0003.59
2023-11-25 13:36:00,SystemResetWarning,0828.3,5.01,000.00,019.2,018.8,000.0,027.4,020.9,10.1,0000.0,0005.09,0003.82,0003.60
2023-11-25 13:37:00,SystemResetWarning,0828.4,5.01,000.00,019.3,019.3,000.0,027.4,021.1,10.1,0000.0,0005.12,0003.81,0003.60
2023-11-25 13:38:00,SystemResetWarning,0828.3,4.99,000.00,019.4,019.3,000.0,027.5,020.9,10.0,0000.0,0005.25,0003.83,0003.60
2023-11-25 13:39:00,SystemResetWarning,0828.3,4.99,000.00,019.4,019.2,000.0,027.5,020.8,10.0,0000.0,0005.48,0003.86,0003.59
2023-11-25 13:40:00,SystemResetWarning,0828.3,4.99,000.00,019.3,019.1,000.0,027.5,020.7,10.1,0000.0,0005.53,0003.87,0003.60
2023-11-25 13:41:00,SystemResetWarning,0828.3,5.01,000.00,019.3,018.9,000.0,027.5,020.6,10.1,0000.0,0005.53,0003.88,0003.60
2023-11-25 13:42:00,SystemResetWarning,0828.3,5.01,000.00,019.3,018.8,000.0,027.5,020.5,10.1,0000.0,0005.57,0003.89,0003.61
2023-11-25 13:43:00,SystemResetWarning,0828.3,5.01,000.00,019.3,018.7,000.0,027.5,020.5,10.1,0000.0,0005.69,0003.92,0003.62
2023-11-25 13:44:00,SystemResetWarning,0828.4,5.00,000.00,019.3,018.6,000.0,027.5,020.4,10.1,0000.0,0005.70,0003.92,0003.62
2023-11-25 13:45:00,SystemResetWarning,0828.4,4.99,000.00,019.3,018.6,000.0,027.5,020.4,10.1,0000.0,0005.74,0003.92,0003.62
2023-11-25 13:46:00,SystemResetWarning,0828.4,5.00,000.00,019.2,018.5,000.0,027.5,020.4,10.1,0000.0,0005.73,0003.92,0003.62
2023-11-25 13:47:00,SystemResetWarning,0828.4,5.00,000.00,019.2,018.5,000.0,027.5,020.4,10.1,0000.0,0005.64,0003.90,0003.61
2023-11-25 13:48:00,SystemResetWarning,0828.4,5.00,000.00,019.2,018.4,000.0,027.5,020.3,10.1,0000.0,0005.60,0003.90,0003.62
2023-11-25 13:49:00,SystemResetWarning,0828.5,5.00,000.00,019.2,018.4,000.0,027.5,020.3,10.2,0000.0,0005.57,0003.90,0003.62
2023-11-25 13:50:00,SystemResetWarning,0828.5,5.01,000.00,019.2,018.3,000.0,027.5,020.3,10.2,0000.0,0005.42,0003.88,0003.61
2023-11-25 13:51:00,SystemResetWarning,0828.5,5.00,000.00,019.2,018.3,000.0,027.5,020.3,10.2,0000.0,0005.37,0003.86,0003.60
2023-11-25 13:52:00,SystemResetWarning,0828.6,5.00,000.00,019.1,018.3,000.0,027.5,020.2,10.2,0000.0,0005.47,0003.88,0003.60
2023-11-25 13:53:00,SystemResetWarning,0828.6,5.00,000.00,019.1,018.2,000.0,027.4,020.2,10.2,0000.0,0005.48,0003.88,0003.60
2023-11-25 13:54:00,SystemResetWarning,0828.6,5.00,000.00,019.1,018.2,000.0,027.4,020.2,10.2,0000.0,0005.39,0003.85,0003.59
2023-11-25 13:55:00,SystemResetWarning,0828.5,5.00,000.00,019.1,018.2,000.0,027.4,020.2,10.2,0000.0,0005.41,0003.85,0003.59
2023-11-25 13:56:00,SystemResetWarning,0828.6,5.00,000.00,019.1,018.1,000.0,027.4,020.2,10.2,0000.0,0005.46,0003.84,0003.59
2023-11-25 13:57:00,SystemResetWarning,0828.6,5.00,000.00,019.1,018.1,000.0,027.4,020.2,10.3,0000.0,0005.50,0003.84,0003.59
2023-11-25 13:58:00,SystemResetWarning,0828.6,5.00,000.00,019.0,018.1,000.0,027.4,020.1,10.3,0000.0,0005.62,0003.87,0003.60
2023-11-25 13:59:00,SystemResetWarning,0828.6,5.01,000.00,019.0,018.2,000.0,027.4,020.4,10.3,0000.0,0005.66,0003.87,0003.60
